Time,TemperatureF,DewpointF,PressureIn,WindDirection,WindDirectionDegrees,WindSpeedMPH,WindSpeedGustMPH,Humidity,HourlyPrecipIn,Conditions,Clouds,dailyrainin,SoftwareType,DateUTC
2013-06-17 00:02:00,73.0,63.0,29.89,WNW,300,3.0,-999.0,70,-99.99,,,-99.99,,2013-06-17 04:02:00,
2013-06-17 00:12:00,73.0,63.0,29.89,West,270,3.0,-999.0,70,-99.99,,,-99.99,,2013-06-17 04:12:00,
2013-06-17 00:22:00,73.0,63.0,29.90,WNW,288,2.0,-999.0,70,-99.99,,,-99.99,,2013-06-17 04:22:00,
2013-06-17 00:34:00,73.0,63.0,29.90,WNW,288,2.0,-999.0,70,-99.99,,,-99.99,,2013-06-17 04:34:00,
2013-06-17 00:43:00,72.0,62.0,29.89,WNW,290,2.0,-999.0,71,-99.99,,,-99.99,,2013-06-17 04:43:00,
2013-06-17 00:53:00,72.0,62.0,29.89,WNW,285,2.0,-999.0,71,-99.99,,,-99.99,,2013-06-17 04:53:00,
2013-06-17 01:02:00,72.0,62.0,29.89,WNW,285,2.0,-999.0,71,-99.99,,,-99.99,,2013-06-17 05:02:00,
2013-06-17 01:12:00,71.0,62.0,29.89,WNW,291,2.0,-999.0,72,-99.99,,,-99.99,,2013-06-17 05:12:00,
2013-06-17 01:22:00,71.0,62.0,29.89,West,274,2.0,-999.0,73,-99.99,,,-99.99,,2013-06-17 05:22:00,
2013-06-17 01:33:00,71.0,62.0,29.89,West,274,2.0,-999.0,73,-99.99,,,-99.99,,2013-06-17 05:33:00,
2013-06-17 01:44:00,71.0,62.0,29.89,WNW,283,2.0,-999.0,73,-99.99,,,-99.99,,2013-06-17 05:44:00,
2013-06-17 01:53:00,71.0,62.0,29.89,WNW,283,2.0,-999.0,73,-99.99,,,-99.99,,2013-06-17 05:53:00,
2013-06-17 02:02:00,71.0,62.0,29.89,West,281,2.0,-999.0,73,-99.99,,,-99.99,,2013-06-17 06:02:00,
2013-06-17 02:12:00,72.0,62.0,29.89,West,276,3.0,-999.0,72,-99.99,,,-99.99,,2013-06-17 06:12:00,
2013-06-17 02:22:00,72.0,62.0,29.89,West,276,3.0,-999.0,72,-99.99,,,-99.99,,2013-06-17 06:22:00,
2013-06-17 02:33:00,72.0,62.0,29.89,West,274,2.0,-999.0,72,-99.99,,,-99.99,,2013-06-17 06:33:00,
2013-06-17 02:43:00,72.0,62.0,29.90,WNW,287,2.0,-999.0,72,-99.99,,,-99.99,,2013-06-17 06:43:00,
2013-06-17 02:53:00,72.0,62.0,29.89,WNW,283,2.0,-999.0,71,-99.99,,,-99.99,,2013-06-17 06:53:00,
2013-06-17 03:02:00,72.0,62.0,29.89,WNW,283,2.0,-999.0,71,-99.99,,,-99.99,,2013-06-17 07:02:00,
2013-06-17 03:12:00,72.0,62.0,29.89,West,276,1.0,-999.0,71,-99.99,,,-99.99,,2013-06-17 07:12:00,
2013-06-17 03:22:00,71.0,62.0,29.90,West,274,1.0,-999.0,72,-99.99,,,-99.99,,2013-06-17 07:22:00,
2013-06-17 03:33:00,71.0,62.0,29.90,West,274,1.0,-999.0,72,-99.99,,,-99.99,,2013-06-17 07:33:00,
2013-06-17 03:43:00,71.0,62.0,29.90,West,280,1.0,-999.0,74,-99.99,,,-99.99,,2013-06-17 07:43:00,
2013-06-17 03:53:00,71.0,62.0,29.90,West,280,2.0,-999.0,74,-99.99,,,-99.99,,2013-06-17 07:53:00,
2013-06-17 04:02:00,71.0,62.0,29.90,West,280,2.0,-999.0,74,-99.99,,,-99.99,,2013-06-17 08:02:00,
2013-06-17 04:12:00,70.0,62.0,29.90,WNW,295,1.0,-999.0,75,-99.99,,,-99.99,,2013-06-17 08:12:00,
2013-06-17 04:22:00,70.0,62.0,29.90,West,263,1.0,-999.0,75,-99.99,,,-99.99,,2013-06-17 08:22:00,
2013-06-17 04:34:00,70.0,62.0,29.90,West,263,1.0,-999.0,75,-99.99,,,-99.99,,2013-06-17 08:34:00,
2013-06-17 04:43:00,70.0,62.0,29.90,West,271,2.0,-999.0,76,-99.99,,,-99.99,,2013-06-17 08:43:00,
2013-06-17 04:53:00,70.0,62.0,29.90,WNW,287,1.0,-999.0,76,-99.99,,,-99.99,,2013-06-17 08:53:00,
2013-06-17 05:02:00,70.0,62.0,29.90,WNW,287,1.0,-999.0,76,-99.99,,,-99.99,,2013-06-17 09:02:00,
2013-06-17 05:12:00,70.0,62.0,29.90,WSW,252,1.0,-999.0,76,-99.99,,,-99.99,,2013-06-17 09:12:00,
2013-06-17 05:22:00,69.0,61.0,29.91,West,260,1.0,-999.0,77,-99.99,,,-99.99,,2013-06-17 09:22:00,
2013-06-17 05:34:00,69.0,61.0,29.91,West,260,1.0,-999.0,77,-99.99,,,-99.99,,2013-06-17 09:34:00,
2013-06-17 05:44:00,69.0,61.0,29.91,WNW,288,1.0,-999.0,77,-99.99,,,-99.99,,2013-06-17 09:44:00,
2013-06-17 05:52:00,70.0,62.0,29.92,West,281,2.0,-999.0,76,-99.99,,,-99.99,,2013-06-17 09:52:00,
2013-06-17 06:02:00,70.0,62.0,29.92,West,281,2.0,-999.0,76,-99.99,,,-99.99,,2013-06-17 10:02:00,
2013-06-17 06:12:00,70.0,62.0,29.92,WNW,288,1.0,-999.0,75,-99.99,,,-99.99,,2013-06-17 10:12:00,
2013-06-17 06:22:00,70.0,62.0,29.91,WNW,283,1.0,-999.0,75,-99.99,,,-99.99,,2013-06-17 10:22:00,
2013-06-17 06:33:00,70.0,62.0,29.91,WNW,283,1.0,-999.0,75,-99.99,,,-99.99,,2013-06-17 10:33:00,
2013-06-17 06:43:00,70.0,62.0,29.91,WNW,287,1.0,-999.0,75,-99.99,,,-99.99,,2013-06-17 10:43:00,
2013-06-17 06:53:00,70.0,62.0,29.91,West,281,1.0,-999.0,75,-99.99,,,-99.99,,2013-06-17 10:53:00,
2013-06-17 07:02:00,70.0,62.0,29.91,West,281,1.0,-999.0,75,-99.99,,,-99.99,,2013-06-17 11:02:00,
2013-06-17 07:12:00,70.0,62.0,29.92,WNW,288,1.0,-999.0,77,-99.99,,,-99.99,,2013-06-17 11:12:00,
2013-06-17 07:23:00,70.0,62.0,29.92,WNW,290,2.0,-999.0,77,-99.99,,,-99.99,,2013-06-17 11:23:00,
2013-06-17 07:33:00,70.0,62.0,29.92,WNW,290,2.0,-999.0,77,-99.99,,,-99.99,,2013-06-17 11:33:00,
2013-06-17 07:43:00,70.0,62.0,29.92,WNW,283,1.0,-999.0,77,-99.99,,,-99.99,,2013-06-17 11:43:00,
2013-06-17 07:53:00,70.0,62.0,29.92,WNW,283,1.0,-999.0,77,-99.99,,,-99.99,,2013-06-17 11:53:00,
2013-06-17 08:02:00,70.0,62.0,29.92,West,273,1.0,-999.0,77,-99.99,,,-99.99,,2013-06-17 12:02:00,
2013-06-17 08:12:00,71.0,63.0,29.92,West,280,1.0,-999.0,77,-99.99,,,-99.99,,2013-06-17 12:12:00,
2013-06-17 08:23:00,72.0,64.0,29.93,West,277,1.0,-999.0,76,-99.99,,,-99.99,,2013-06-17 12:23:00,
2013-06-17 08:33:00,72.0,64.0,29.93,West,277,1.0,-999.0,76,-99.99,,,-99.99,,2013-06-17 12:33:00,
2013-06-17 08:43:00,72.0,64.0,29.93,West,262,1.0,-999.0,77,-99.99,,,-99.99,,2013-06-17 12:43:00,
2013-06-17 08:53:00,72.0,64.0,29.93,West,262,1.0,-999.0,77,-99.99,,,-99.99,,2013-06-17 12:53:00,
2013-06-17 09:02:00,72.0,64.0,29.93,West,267,1.0,-999.0,77,-99.99,,,-99.99,,2013-06-17 13:02:00,
2013-06-17 09:12:00,72.0,64.0,29.93,West,278,2.0,-999.0,76,-99.99,,,-99.99,,2013-06-17 13:12:00,
2013-06-17 09:22:00,73.0,65.0,29.93,West,273,1.0,-999.0,76,-99.99,,,-99.99,,2013-06-17 13:22:00,
2013-06-17 09:32:00,73.0,65.0,29.93,West,273,1.0,-999.0,76,-99.99,,,-99.99,,2013-06-17 13:32:00,
2013-06-17 09:43:00,74.0,66.0,29.93,WSW,257,2.0,-999.0,75,-99.99,,,-99.99,,2013-06-17 13:43:00,
2013-06-17 09:52:00,74.0,66.0,29.93,WSW,257,2.0,-999.0,75,-99.99,,,-99.99,,2013-06-17 13:52:00,
2013-06-17 10:02:00,75.0,67.0,29.93,West,273,1.0,-999.0,76,-99.99,,,-99.99,,2013-06-17 14:02:00,
2013-06-17 10:12:00,76.0,67.0,29.93,WSW,238,2.0,-999.0,74,-99.99,,,-99.99,,2013-06-17 14:12:00,
2013-06-17 10:22:00,76.0,67.0,29.93,WSW,238,2.0,-999.0,74,-99.99,,,-99.99,,2013-06-17 14:22:00,
2013-06-17 10:34:00,77.0,67.0,29.92,West,262,2.0,-999.0,72,-99.99,,,-99.99,,2013-06-17 14:34:00,
2013-06-17 10:43:00,77.0,67.0,29.92,West,276,2.0,-999.0,71,-99.99,,,-99.99,,2013-06-17 14:43:00,
2013-06-17 10:53:00,77.0,67.0,29.92,West,276,2.0,-999.0,71,-99.99,,,-99.99,,2013-06-17 14:53:00,
2013-06-17 11:02:00,77.0,67.0,29.91,West,274,3.0,-999.0,71,-99.99,,,-99.99,,2013-06-17 15:02:00,
2013-06-17 11:12:00,78.0,67.0,29.91,WNW,285,2.0,-999.0,69,-99.99,,,-99.99,,2013-06-17 15:12:00,
2013-06-17 11:22:00,78.0,66.0,29.91,West,262,3.0,-999.0,67,-99.99,,,-99.99,,2013-06-17 15:22:00,
2013-06-17 11:33:00,78.0,66.0,29.91,West,262,3.0,-999.0,67,-99.99,,,-99.99,,2013-06-17 15:33:00,
2013-06-17 11:43:00,77.0,66.0,29.91,West,264,2.0,-999.0,69,-99.99,,,-99.99,,2013-06-17 15:43:00,
2013-06-17 11:52:00,77.0,66.0,29.91,West,264,2.0,-999.0,69,-99.99,,,-99.99,,2013-06-17 15:52:00,
2013-06-17 12:02:00,79.0,68.0,29.91,West,264,2.0,-999.0,68,-99.99,,,-99.99,,2013-06-17 16:02:00,
2013-06-17 12:12:00,79.0,66.0,29.91,West,279,2.0,-999.0,65,-99.99,,,-99.99,,2013-06-17 16:12:00,
2013-06-17 12:22:00,80.0,68.0,29.90,West,263,2.0,-999.0,68,-99.99,,,-99.99,,2013-06-17 16:22:00,
2013-06-17 12:33:00,80.0,68.0,29.90,West,263,2.0,-999.0,68,-99.99,,,-99.99,,2013-06-17 16:33:00,
2013-06-17 12:43:00,80.0,67.0,29.91,WSW,252,1.0,-999.0,65,-99.99,,,-99.99,,2013-06-17 16:43:00,
2013-06-17 12:53:00,81.0,68.0,29.90,West,267,2.0,-999.0,65,-99.99,,,-99.99,,2013-06-17 16:53:00,
2013-06-17 13:02:00,81.0,68.0,29.90,West,267,2.0,-999.0,65,-99.99,,,-99.99,,2013-06-17 17:02:00,
2013-06-17 13:12:00,82.0,68.0,29.90,West,274,2.0,-999.0,62,-99.99,,,-99.99,,2013-06-17 17:12:00,
2013-06-17 13:22:00,80.0,67.0,29.90,West,274,1.0,-999.0,65,-99.99,,,-99.99,,2013-06-17 17:22:00,
2013-06-17 13:33:00,80.0,67.0,29.90,West,274,1.0,-999.0,65,-99.99,,,-99.99,,2013-06-17 17:33:00,
2013-06-17 13:43:00,81.0,67.0,29.90,West,277,2.0,-999.0,62,-99.99,,,-99.99,,2013-06-17 17:43:00,
2013-06-17 13:52:00,81.0,67.0,29.90,West,277,2.0,-999.0,62,-99.99,,,-99.99,,2013-06-17 17:52:00,
2013-06-17 14:02:00,82.0,68.0,29.89,WNW,293,2.0,-999.0,63,-99.99,,,-99.99,,2013-06-17 18:02:00,
2013-06-17 14:12:00,82.0,68.0,29.89,WSW,252,2.0,-999.0,63,-99.99,,,-99.99,,2013-06-17 18:12:00,
2013-06-17 14:23:00,83.0,68.0,29.89,WSW,242,2.0,-999.0,61,-99.99,,,-99.99,,2013-06-17 18:23:00,
2013-06-17 14:33:00,83.0,68.0,29.89,WSW,242,2.0,-999.0,61,-99.99,,,-99.99,,2013-06-17 18:33:00,
2013-06-17 14:43:00,84.0,68.0,29.89,WSW,250,2.0,-999.0,59,-99.99,,,-99.99,,2013-06-17 18:43:00,
2013-06-17 14:53:00,84.0,68.0,29.88,NNE,24,1.0,-999.0,58,-99.99,,,-99.99,,2013-06-17 18:53:00,
2013-06-17 15:02:00,84.0,68.0,29.88,NNE,24,1.0,-999.0,58,-99.99,,,-99.99,,2013-06-17 19:02:00,
2013-06-17 15:12:00,83.0,68.0,29.88,WSW,246,3.0,-999.0,60,-99.99,,,-99.99,,2013-06-17 19:12:00,
2013-06-17 15:22:00,82.0,68.0,29.88,WNW,293,2.0,-999.0,63,-99.99,,,-99.99,,2013-06-17 19:22:00,
2013-06-17 15:33:00,82.0,68.0,29.88,WNW,293,2.0,-999.0,63,-99.99,,,-99.99,,2013-06-17 19:33:00,
2013-06-17 15:43:00,83.0,69.0,29.88,WNW,285,3.0,-999.0,62,-99.99,,,-99.99,,2013-06-17 19:43:00,
2013-06-17 15:53:00,83.0,69.0,29.88,WNW,285,3.0,-999.0,62,-99.99,,,-99.99,,2013-06-17 19:53:00,
2013-06-17 16:02:00,83.0,68.0,29.87,WSW,255,2.0,-999.0,61,-99.99,,,-99.99,,2013-06-17 20:02:00,
2013-06-17 16:11:00,84.0,70.0,29.87,West,259,1.0,-999.0,62,-99.99,,,-99.99,,2013-06-17 20:11:00,
2013-06-17 16:22:00,84.0,69.0,29.86,WSW,248,2.0,-999.0,61,-99.99,,,-99.99,,2013-06-17 20:22:00,
2013-06-17 16:34:00,84.0,69.0,29.86,WSW,248,2.0,-999.0,61,-99.99,,,-99.99,,2013-06-17 20:34:00,
2013-06-17 16:43:00,85.0,70.0,29.85,West,274,1.0,-999.0,60,-99.99,,,-99.99,,2013-06-17 20:43:00,
2013-06-17 16:52:00,84.0,67.0,29.85,WNW,295,1.0,-999.0,57,-99.99,,,-99.99,,2013-06-17 20:52:00,
2013-06-17 17:02:00,84.0,67.0,29.85,WNW,295,1.0,-999.0,57,-99.99,,,-99.99,,2013-06-17 21:02:00,
2013-06-17 17:12:00,83.0,66.0,29.85,WNW,283,2.0,-999.0,56,-99.99,,,-99.99,,2013-06-17 21:12:00,
2013-06-17 17:22:00,83.0,66.0,29.85,WNW,283,2.0,-999.0,56,-99.99,,,-99.99,,2013-06-17 21:22:00,
2013-06-17 17:33:00,83.0,66.0,29.85,WNW,283,2.0,-999.0,56,-99.99,,,-99.99,,2013-06-17 21:33:00,
2013-06-17 17:43:00,83.0,66.0,29.85,West,267,2.0,-999.0,57,-99.99,,,-99.99,,2013-06-17 21:43:00,
2013-06-17 17:52:00,83.0,66.0,29.85,West,267,2.0,-999.0,57,-99.99,,,-99.99,,2013-06-17 21:52:00,
2013-06-17 18:01:00,83.0,67.0,29.85,West,277,2.0,-999.0,58,-99.99,,,-99.99,,2013-06-17 22:01:00,
2013-06-17 18:12:00,83.0,67.0,29.85,West,267,2.0,-999.0,58,-99.99,,,-99.99,,2013-06-17 22:12:00,
2013-06-17 18:22:00,83.0,67.0,29.85,West,264,1.0,-999.0,59,-99.99,,,-99.99,,2013-06-17 22:22:00,
2013-06-17 18:34:00,83.0,67.0,29.85,West,264,1.0,-999.0,59,-99.99,,,-99.99,,2013-06-17 22:34:00,
2013-06-17 18:43:00,82.0,67.0,29.85,West,260,1.0,-999.0,60,-99.99,,,-99.99,,2013-06-17 22:43:00,
2013-06-17 18:53:00,82.0,68.0,29.86,WSW,255,1.0,-999.0,62,-99.99,,,-99.99,,2013-06-17 22:53:00,
2013-06-17 19:02:00,82.0,68.0,29.86,WSW,255,1.0,-999.0,62,-99.99,,,-99.99,,2013-06-17 23:02:00,
2013-06-17 19:11:00,82.0,68.0,29.85,WNW,285,1.0,-999.0,62,-99.99,,,-99.99,,2013-06-17 23:11:00,
2013-06-17 19:22:00,82.0,69.0,29.85,West,281,1.0,-999.0,65,-99.99,,,-99.99,,2013-06-17 23:22:00,
2013-06-17 19:33:00,82.0,69.0,29.85,West,281,1.0,-999.0,65,-99.99,,,-99.99,,2013-06-17 23:33:00,
2013-06-17 19:43:00,82.0,69.0,29.86,WNW,289,0.0,-999.0,66,-99.99,,,-99.99,,2013-06-17 23:43:00,
2013-06-17 19:53:00,81.0,69.0,29.85,West,270,0.0,-999.0,67,-99.99,,,-99.99,,2013-06-17 23:53:00,
2013-06-17 20:02:00,81.0,69.0,29.85,West,270,0.0,-999.0,67,-99.99,,,-99.99,,2013-06-18 00:02:00,
2013-06-17 20:12:00,81.0,70.0,29.85,West,270,0.0,-999.0,69,-99.99,,,-99.99,,2013-06-18 00:12:00,
2013-06-17 20:22:00,79.0,69.0,29.85,West,269,0.0,-999.0,71,-99.99,,,-99.99,,2013-06-18 00:22:00,
2013-06-17 20:33:00,79.0,69.0,29.85,West,269,0.0,-999.0,71,-99.99,,,-99.99,,2013-06-18 00:33:00,
2013-06-17 20:43:00,78.0,68.0,29.86,West,269,0.0,-999.0,72,-99.99,,,-99.99,,2013-06-18 00:43:00,
2013-06-17 20:52:00,77.0,68.0,29.87,West,270,0.0,-999.0,75,-99.99,,,-99.99,,2013-06-18 00:52:00,
2013-06-17 21:01:00,77.0,68.0,29.87,West,270,0.0,-999.0,75,-99.99,,,-99.99,,2013-06-18 01:01:00,
2013-06-17 21:12:00,76.0,68.0,29.88,West,270,0.0,-999.0,77,-99.99,,,-99.99,,2013-06-18 01:12:00,
2013-06-17 21:23:00,76.0,68.0,29.88,West,270,0.0,-999.0,77,-99.99,,,-99.99,,2013-06-18 01:23:00,
2013-06-17 21:34:00,75.0,67.0,29.89,SSW,206,1.0,-999.0,77,-99.99,,,-99.99,,2013-06-18 01:34:00,
2013-06-17 21:44:00,74.0,66.0,29.88,NE,40,1.0,-999.0,75,-99.99,,,-99.99,,2013-06-18 01:44:00,
2013-06-17 21:53:00,73.0,65.0,29.89,NE,43,0.0,-999.0,75,-99.99,,,-99.99,,2013-06-18 01:53:00,
2013-06-17 22:02:00,73.0,65.0,29.89,NE,43,0.0,-999.0,75,-99.99,,,-99.99,,2013-06-18 02:02:00,
2013-06-17 22:12:00,72.0,64.0,29.89,NNW,334,0.0,-999.0,76,-99.99,,,-99.99,,2013-06-18 02:12:00,
2013-06-17 22:22:00,72.0,64.0,29.89,NNW,334,0.0,-999.0,76,-99.99,,,-99.99,,2013-06-18 02:22:00,
2013-06-17 22:34:00,72.0,64.0,29.89,NNW,339,0.0,-999.0,77,-99.99,,,-99.99,,2013-06-18 02:34:00,
2013-06-17 22:43:00,71.0,65.0,29.89,North,360,0.0,-999.0,80,-99.99,,,-99.99,,2013-06-18 02:43:00,
2013-06-17 22:53:00,71.0,64.0,29.90,WNW,283,0.0,-999.0,78,-99.99,,,-99.99,,2013-06-18 02:53:00,
2013-06-17 23:02:00,71.0,64.0,29.90,WNW,283,0.0,-999.0,78,-99.99,,,-99.99,,2013-06-18 03:02:00,
2013-06-17 23:12:00,71.0,64.0,29.89,WNW,283,0.0,-999.0,78,-99.99,,,-99.99,,2013-06-18 03:12:00,
2013-06-17 23:23:00,71.0,63.0,29.89,WNW,283,0.0,-999.0,77,-99.99,,,-99.99,,2013-06-18 03:23:00,
2013-06-17 23:34:00,71.0,63.0,29.89,WNW,283,0.0,-999.0,77,-99.99,,,-99.99,,2013-06-18 03:34:00,
2013-06-17 23:43:00,71.0,63.0,29.89,WNW,283,0.0,-999.0,76,-99.99,,,-99.99,,2013-06-18 03:43:00,
2013-06-17 23:53:00,72.0,65.0,29.89,West,278,0.0,-999.0,78,-99.99,,,-99.99,,2013-06-18 03:53:00,